BEIJING 1 1 28890U 05043A 25312.85390308 .00000695 00000+0 14405-3 0 9994 2 28890 98.2630 80.2864 0013491 249.4770 110.4985 14.63315595 68426 HUANJING 1A (HJ-1A) 1 33320U 08041A 25312.89970517 .00002406 00000+0 29955-3 0 9997 2 33320 97.6525 302.6185 0020247 138.0175 222.2596 14.83235675925741 HUANJING 1B (HJ-1B) 1 33321U 08041B 25312.91295745 .00001980 00000+0 24895-3 0 9998 2 33321 97.6389 306.4147 0036534 183.8782 176.2154 14.82691668925765 YAOGAN-4 1 33446U 08061A 25312.38623814 .00002052 00000+0 26151-3 0 9999 2 33446 97.9134 242.8361 0015993 71.3103 288.9845 14.82516749912949 DEIMOS-1 1 35681U 09041A 25312.86112704 .00001107 00000+0 17207-3 0 9997 2 35681 97.7139 115.0460 0001839 135.0065 225.1294 14.74871997874404 UK-DMC 2 1 35683U 09041C 25312.80551794 .00001687 00000+0 25501-3 0 9998 2 35683 97.8541 88.6746 0001045 90.8326 269.3003 14.75506589874066 DMC3-FM1 1 40715U 15032A 25312.88592929 .00001273 00000+0 15391-3 0 9997 2 40715 97.6730 181.3070 0006960 65.0648 295.1290 14.85348784557200 DMC3-FM2 1 40716U 15032B 25312.90845492 .00001267 00000+0 15331-3 0 9994 2 40716 97.6780 182.7486 0007540 69.0312 291.1709 14.85349513557201 DMC3-FM3 1 40717U 15032C 25312.86262810 .00001253 00000+0 15161-3 0 9993 2 40717 97.6834 184.3149 0006878 69.9786 290.2169 14.85350355557209